When you browse on this site, cookies collect data to enhance your experience and personalize the content and advertising you see.
Visit our Privacy Policy to learn more. By continuing to use the site, you agree to this use of cookies and data.
  • In United Kingdom
  • List of Countries
  • For 7 days
  • Water Temperature
  • Weather Map
  • Weather Widgets
  • user-avatar
    Login

    Hourly Weather Francistown

    Today, 27 January, Monday

    Time Temperature Precipitation Wind Pressure Humidity
    00:00 +28°C° 0 mm 1 mps 676 mmHg 40%
    01:00 +28°C° 0 mm 1 mps 676 mmHg 40%
    02:00 +28°C° 0 mm 2 mps 676 mmHg 41%
    03:00 +27°C° 0 mm 2 mps 676 mmHg 43%
    04:00 +27°C° 0 mm 1 mps 676 mmHg 45%
    05:00 +26°C° 0 mm 1 mps 676 mmHg 46%
    06:00 +28°C° 0 mm 1 mps 676 mmHg 43%
    07:00 +29°C° 0 mm 1 mps 677 mmHg 41%
    08:00 +30°C° 0 mm 1 mps 677 mmHg 38%
    09:00 +32°C° 0 mm 1 mps 677 mmHg 33%
    10:00 +34°C° 0 mm 1 mps 678 mmHg 28%
    11:00 +36°C° 0 mm 1 mps 678 mmHg 23%
    12:00 +38°C° 0 mm 2 mps 677 mmHg 23%
    13:00 +38°C° 0 mm 2 mps 676 mmHg 22%
    14:00 +38°C° 0 mm 3 mps 676 mmHg 22%
    15:00 +37°C° 0 mm 3 mps 676 mmHg 24%
    16:00 +36°C° 0 mm 3 mps 675 mmHg 26%
    17:00 +35°C° 0 mm 3 mps 675 mmHg 28%
    18:00 +34°C° 0 mm 3 mps 676 mmHg 32%
    19:00 +32°C° 0 mm 4 mps 676 mmHg 36%
    20:00 +30°C° 0 mm 4 mps 676 mmHg 39%
    21:00 +28°C° 0.5 mm 6 mps 676 mmHg 53%
    22:00 +26°C° 0.5 mm 7 mps 677 mmHg 66%
    23:00 +23°C° 0.5 mm 9 mps 677 mmHg 80%

    Tomorrow, 28 January, Tuesday

    Time Temperature Precipitation Wind Pressure Humidity
    00:00 +23°C° 0.1 mm 8 mps 677 mmHg 80%
    01:00 +22°C° 0.1 mm 8 mps 677 mmHg 80%
    02:00 +22°C° 0.1 mm 7 mps 677 mmHg 80%
    03:00 +22°C° 0 mm 7 mps 677 mmHg 80%
    04:00 +22°C° 0 mm 6 mps 677 mmHg 80%
    05:00 +22°C° 0 mm 6 mps 677 mmHg 80%
    06:00 +22°C° 0 mm 6 mps 678 mmHg 78%
    07:00 +22°C° 0 mm 6 mps 678 mmHg 76%
    08:00 +22°C° 0 mm 6 mps 678 mmHg 74%
    09:00 +24°C° 0 mm 6 mps 678 mmHg 68%
    10:00 +26°C° 0 mm 6 mps 678 mmHg 61%
    11:00 +28°C° 0 mm 5 mps 679 mmHg 55%
    12:00 +30°C° 0 mm 5 mps 678 mmHg 49%
    13:00 +32°C° 0 mm 4 mps 677 mmHg 44%
    14:00 +34°C° 0 mm 4 mps 677 mmHg 38%
    15:00 +34°C° 0 mm 4 mps 677 mmHg 36%
    16:00 +34°C° 0 mm 4 mps 676 mmHg 34%
    17:00 +35°C° 0 mm 4 mps 676 mmHg 32%
    18:00 +33°C° 0 mm 5 mps 676 mmHg 39%
    19:00 +30°C° 0 mm 5 mps 676 mmHg 45%
    20:00 +28°C° 0 mm 6 mps 676 mmHg 52%
    21:00 +27°C° 0 mm 6 mps 676 mmHg 54%
    22:00 +26°C° 0 mm 6 mps 677 mmHg 57%
    23:00 +24°C° 0 mm 6 mps 677 mmHg 59%

    Day after tomorrow, 29 January, Wednesday

    Time Temperature Precipitation Wind Pressure Humidity
    00:00 +25°C° 0 mm 5 mps 677 mmHg 62%
    01:00 +23°C° 0 mm 5 mps 676 mmHg 64%
    02:00 +23°C° 0 mm 5 mps 676 mmHg 66%
    03:00 +22°C° 0 mm 4 mps 676 mmHg 67%
    04:00 +22°C° 0 mm 3 mps 676 mmHg 69%
    05:00 +21°C° 0 mm 2 mps 676 mmHg 70%
    06:00 +24°C° 0 mm 3 mps 677 mmHg 62%
    07:00 +26°C° 0 mm 3 mps 677 mmHg 54%
    08:00 +28°C° 0 mm 4 mps 678 mmHg 47%
    09:00 +30°C° 0 mm 4 mps 678 mmHg 39%
    10:00 +33°C° 0 mm 3 mps 678 mmHg 32%
    11:00 +35°C° 0 mm 3 mps 679 mmHg 25%
    12:00 +36°C° 0 mm 3 mps 678 mmHg 22%
    13:00 +37°C° 0 mm 3 mps 677 mmHg 20%
    14:00 +38°C° 0 mm 3 mps 677 mmHg 17%
    15:00 +38°C° 0 mm 4 mps 677 mmHg 17%
    16:00 +37°C° 0 mm 5 mps 676 mmHg 17%
    17:00 +37°C° 0 mm 5 mps 676 mmHg 17%
    18:00 +35°C° 0 mm 5 mps 676 mmHg 20%
    19:00 +33°C° 0 mm 5 mps 676 mmHg 23%
    20:00 +30°C° 0 mm 5 mps 676 mmHg 27%
    21:00 +29°C° 0 mm 4 mps 677 mmHg 29%
    22:00 +28°C° 0 mm 4 mps 677 mmHg 32%
    23:00 +27°C° 0 mm 3 mps 677 mmHg 34%

    30 January, Thursday

    Time Temperature Precipitation Wind Pressure Humidity
    00:00 +26°C° 0 mm 3 mps 677 mmHg 36%
    01:00 +25°C° 0 mm 2 mps 676 mmHg 37%
    02:00 +25°C° 0 mm 2 mps 676 mmHg 39%
    03:00 +24°C° 0 mm 2 mps 676 mmHg 42%
    04:00 +24°C° 0 mm 2 mps 676 mmHg 45%
    05:00 +23°C° 0 mm 2 mps 676 mmHg 48%
    06:00 +25°C° 0 mm 2 mps 677 mmHg 46%
    07:00 +27°C° 0 mm 3 mps 677 mmHg 44%
    08:00 +28°C° 0 mm 3 mps 678 mmHg 42%
    09:00 +32°C° 0 mm 4 mps 678 mmHg 36%
    10:00 +34°C° 0 mm 4 mps 679 mmHg 30%
    11:00 +36°C° 0 mm 5 mps 679 mmHg 24%
    12:00 +38°C° 0 mm 6 mps 679 mmHg 23%
    13:00 +38°C° 0 mm 6 mps 678 mmHg 23%
    14:00 +39°C° 0 mm 7 mps 678 mmHg 22%
    15:00 +38°C° 0 mm 7 mps 677 mmHg 23%
    16:00 +38°C° 0 mm 7 mps 677 mmHg 24%
    17:00 +36°C° 0 mm 7 mps 676 mmHg 25%
    18:00 +34°C° 0 mm 7 mps 677 mmHg 29%
    19:00 +33°C° 0 mm 6 mps 677 mmHg 33%
    20:00 +30°C° 0 mm 6 mps 677 mmHg 38%
    21:00 +29°C° 0 mm 6 mps 678 mmHg 42%
    22:00 +28°C° 0 mm 7 mps 678 mmHg 47%
    23:00 +27°C° 0 mm 8 mps 679 mmHg 52%

    31 January, Friday

    Time Temperature Precipitation Wind Pressure Humidity
    00:00 +26°C° 0 mm 7 mps 679 mmHg 56%
    01:00 +24°C° 0 mm 7 mps 678 mmHg 59%
    02:00 +23°C° 0 mm 6 mps 678 mmHg 63%
    03:00 +22°C° 0 mm 6 mps 678 mmHg 67%
    04:00 +22°C° 0 mm 6 mps 678 mmHg 71%
    05:00 +21°C° 0 mm 5 mps 678 mmHg 74%
    06:00 +22°C° 0 mm 5 mps 678 mmHg 71%
    07:00 +22°C° 0 mm 6 mps 679 mmHg 68%
    08:00 +23°C° 0 mm 6 mps 679 mmHg 65%
    09:00 +26°C° 0 mm 6 mps 679 mmHg 55%
    10:00 +28°C° 0 mm 6 mps 680 mmHg 45%
    11:00 +32°C° 0 mm 6 mps 680 mmHg 36%
    12:00 +33°C° 0 mm 6 mps 679 mmHg 32%
    13:00 +34°C° 0 mm 6 mps 678 mmHg 28%
    14:00 +35°C° 0 mm 6 mps 678 mmHg 25%
    15:00 +35°C° 0 mm 7 mps 677 mmHg 25%
    16:00 +34°C° 0 mm 7 mps 677 mmHg 25%
    17:00 +34°C° 0 mm 7 mps 676 mmHg 25%
    18:00 +32°C° 0 mm 6 mps 676 mmHg 29%
    19:00 +29°C° 0 mm 5 mps 676 mmHg 33%
    20:00 +27°C° 0 mm 4 mps 676 mmHg 37%
    21:00 +26°C° 0 mm 4 mps 677 mmHg 40%
    22:00 +25°C° 0 mm 3 mps 677 mmHg 43%
    23:00 +24°C° 0 mm 3 mps 677 mmHg 46%

    1 February, Saturday

    Time Temperature Precipitation Wind Pressure Humidity
    00:00 +23°C° 0 mm 2 mps 677 mmHg 49%
    01:00 +21°C° 0 mm 2 mps 677 mmHg 51%
    02:00 +21°C° 0 mm 2 mps 676 mmHg 53%
    03:00 +20°C° 0 mm 2 mps 676 mmHg 55%
    04:00 +20°C° 0 mm 2 mps 676 mmHg 57%
    05:00 +20°C° 0 mm 2 mps 676 mmHg 59%
    06:00 +21°C° 0 mm 3 mps 677 mmHg 54%
    07:00 +23°C° 0 mm 4 mps 677 mmHg 49%
    08:00 +26°C° 0 mm 4 mps 678 mmHg 44%
    09:00 +28°C° 0 mm 5 mps 678 mmHg 37%
    10:00 +32°C° 0 mm 5 mps 678 mmHg 30%
    11:00 +34°C° 0 mm 5 mps 679 mmHg 23%
    12:00 +35°C° 0 mm 6 mps 678 mmHg 21%
    13:00 +38°C° 0 mm 6 mps 677 mmHg 18%
    14:00 +39°C° 0 mm 6 mps 677 mmHg 16%
    15:00 +38°C° 0 mm 6 mps 676 mmHg 16%
    16:00 +38°C° 0 mm 6 mps 676 mmHg 17%
    17:00 +36°C° 0 mm 7 mps 675 mmHg 17%
    18:00 +34°C° 0 mm 6 mps 675 mmHg 20%
    19:00 +32°C° 0 mm 5 mps 675 mmHg 24%
    20:00 +29°C° 0 mm 4 mps 675 mmHg 27%
    21:00 +27°C° 0 mm 4 mps 676 mmHg 30%
    22:00 +26°C° 0 mm 3 mps 676 mmHg 34%
    23:00 +25°C° 0 mm 2 mps 676 mmHg 37%
    Show more